Simultaneous Nadir Overpasses (SNOs) Predictions

Prediction of SNOs between LANDSAT-8 and METOP-B Satellite Orbit:

Table of predicted SNOs for the next 14.0 days since TLE Epoch: 2/4/2023
Index Date (LANDSAT-8) Time (LANDSAT-8) Lat,Lon (LANDSAT-8) SZA (LANDSAT-8 ) Date (METOP-B) Time (METOP-B) Lat,Lon (METOP-B) SZA (METOP-B ) Distance(km) Time Diff (sec)
1 02/06/2023 16:10:56 81.11, -23.25 98.27 02/06/2023 16:10:29 81.11, -23.34 98.25 1.53 27
2 02/06/2023 17:00:21 -81.16, 145.08 81.65 02/06/2023 17:01:07 -81.15, 145.15 81.63 1.29 46
3 02/09/2023 11:45:09 81.13, 43.54 97.43 02/09/2023 11:44:52 81.13, 43.65 97.43 1.81 17
4 02/09/2023 12:34:35 -81.16,-148.48 82.54 02/09/2023 12:35:32 -81.15,-148.59 82.53 2.16 57
5 02/12/2023 07:19:23 81.12, 109.80 96.49 02/12/2023 07:19:17 81.12, 109.81 96.49 0.38 6
6 02/12/2023 08:08:49 -81.14, -82.20 83.48 02/12/2023 08:09:56 -81.15, -82.02 83.43 3.23 67
7 02/15/2023 02:04:10 -81.10, 8.25 84.50 02/15/2023 02:03:02 -81.10, 8.07 84.54 2.97 68
8 02/15/2023 02:53:35 81.12, 176.25 95.54 02/15/2023 02:53:40 81.13, 176.28 95.55 0.78 5
9 02/17/2023 21:38:22 -81.11, 74.90 85.44 02/17/2023 21:37:25 -81.11, 74.87 85.47 0.55 57



Historial Predications of SNOs between LANDSAT-8 and METOP-B
